Tacoma, WA

1:24 AM PDT on August 28, 2016 (GMT -0700)
McChord Air Force Base

Weather History for KTCM - November, 2013

Change the Weather History Date:

Wednesday, November 27, 2013

  Actual Average Record
Temperature  
Mean Temperature 42 °F -  
Max Temperature 53 °F 46 °F 60 °F (2014)
Min Temperature 30 °F 33 °F 19 °F (1958)
Degree Days  
Heating Degree Days 24    
Moisture  
Dew Point 35 °F    
Average Humidity 96    
Maximum Humidity 100    
Minimum Humidity 61    
Precipitation  
Precipitation 0.00 in - - ()
Sea Level Pressure  
Sea Level Pressure 30.02 in    
Wind  
Wind Speed 2 mph (South)    
Max Wind Speed 5 mph    
Max Gust Speed -    
Visibility 4 miles    
Events Fog    
Averages and records for this station are not official NWS values.
T = Trace of Precipitation, MM = Missing Value Source: NWS Daily Summary

Daily Weather History Graph

Daily Weather History Graph

Search for Another Location

Airport or City:

Trip Planner

Search our weather history database for the weather conditions in past years. The results will help you decide how hot, cold, wet, or windy it might be!

Date:

Astronomy

Nov. 27, 2013 Rise Set
Actual Time 7:30 AM PST 4:24 PM PST
Civil Twilight 6:56 AM PST 4:58 PM PST
Nautical Twilight 6:18 AM PST 5:36 PM PST
Astronomical Twilight 5:41 AM PST 6:13 PM PST
Moon 1:17 AM PST (11/27) 1:23 PM PST (11/27)
Length of Visible Light 10h 02m
Length of Day
8h 53m
Waning Crescent, 30% of the Moon is Illuminated
Nov 27
Waning Crescent
Dec 2
New
Dec 9
First Quarter
Dec 17
Full
Dec 25
Last Quarter

Hourly Weather History & Observations

Time (PST) Temp. Windchill Dew Point Humidity Pressure Visibility Wind Dir Wind Speed Gust Speed Precip Events Conditions
12:58 AM 42.8 °F - 42.4 °F 99% 30.10 in 10.0 mi SSE 1.2 mph - N/A   Overcast
1:58 AM 40.6 °F - 40.5 °F 99% 30.10 in 10.0 mi SSE 1.2 mph - N/A   Overcast
2:58 AM 40.1 °F - 39.9 °F 99% 30.07 in 10.0 mi South 2.3 mph - N/A   Overcast
3:58 AM 40.3 °F - 39.9 °F 99% 30.08 in 10.0 mi South 2.3 mph - N/A   Overcast
4:58 AM 41.0 °F 38.0 °F 40.6 °F 99% 30.06 in 10.0 mi SSW 4.6 mph - N/A   Scattered Clouds
5:58 AM 37.8 °F - 37.4 °F 99% 30.05 in 10.0 mi NE 1.2 mph - N/A   Mostly Cloudy
6:58 AM 36.9 °F - 36.7 °F 99% 30.04 in 10.0 mi ESE 1.2 mph - N/A   Mostly Cloudy
7:23 AM 35.6 °F 32.8 °F 35.6 °F 100% 30.01 in 1.8 mi SSW 3.5 mph - N/A   Scattered Clouds
7:28 AM 35.6 °F 31.7 °F 35.6 °F 100% 30.02 in 2.0 mi South 4.6 mph - N/A   Scattered Clouds
7:33 AM 33.8 °F - 33.8 °F 100% 30.02 in 9.0 mi Calm Calm - N/A   Mostly Cloudy
7:58 AM 35.2 °F - 35.1 °F 99% 30.04 in 4.0 mi SSW 2.3 mph - N/A   Partly Cloudy
8:58 AM 38.7 °F - 38.7 °F 100% 30.05 in 10.0 mi Calm Calm - N/A   Clear
9:58 AM 45.3 °F - 41.0 °F 85% 30.05 in 10.0 mi ENE 2.3 mph - N/A   Partly Cloudy
10:58 AM 48.0 °F - 43.5 °F 84% 30.03 in 10.0 mi Calm Calm - N/A   Partly Cloudy
11:58 AM 49.6 °F - 42.8 °F 77% 30.02 in 10.0 mi NE 1.2 mph - N/A   Mostly Cloudy
12:58 PM 53.1 °F - 41.5 °F 65% 30.01 in 6.0 mi Variable 1.2 mph - N/A   Haze
1:23 PM 53.1 °F - 41.5 °F 65% 30.00 in 7.0 mi ENE 1.2 mph - N/A   Scattered Clouds
1:58 PM 53.6 °F - 41.2 °F 63% 29.99 in 10.0 mi NW 2.3 mph - N/A   Scattered Clouds
2:58 PM 53.2 °F - 39.9 °F 61% 29.99 in 10.0 mi North 1.2 mph - N/A   Clear
3:58 PM 48.9 °F - 41.0 °F 74% 29.99 in 10.0 mi Calm Calm - N/A   Overcast
4:58 PM 42.6 °F - 39.6 °F 89% 29.99 in 10.0 mi Calm Calm - N/A   Partly Cloudy
5:58 PM 38.1 °F 35.7 °F 37.8 °F 99% 30.00 in 10.0 mi SSW 3.5 mph - N/A   Clear
6:48 PM 37.4 °F - 37.4 °F 100% 29.99 in 2.5 mi SSW 2.3 mph - N/A   Partly Cloudy
6:53 PM 37.4 °F - 37.4 °F 100% 29.99 in 2.0 mi SSE 2.3 mph - N/A   Scattered Clouds
6:58 PM 37.6 °F - 37.4 °F 99% 30.01 in 2.5 mi Calm Calm - N/A   Mostly Cloudy
7:03 PM 35.6 °F - 35.6 °F 100% 29.99 in 8.0 mi Calm Calm - N/A   Mostly Cloudy
7:08 PM 35.6 °F - 35.6 °F 100% 29.99 in 2.5 mi South 2.3 mph - N/A   Mostly Cloudy
7:13 PM 37.4 °F - 37.4 °F 100% 29.99 in 1.0 mi Calm Calm - N/A   Mostly Cloudy
7:18 PM 37.4 °F - 35.6 °F 93% 29.99 in 0.8 mi Calm Calm - N/A   Mostly Cloudy
7:23 PM 35.6 °F - 35.6 °F 100% 29.99 in 2.5 mi Calm Calm - N/A   Scattered Clouds
7:28 PM 37.4 °F - 35.6 °F 93% 29.99 in 1.2 mi South 2.3 mph - N/A   Scattered Clouds
7:33 PM 37.4 °F - 37.4 °F 100% 30.00 in 0.8 mi Calm Calm - N/A   Partly Cloudy
7:38 PM 37.4 °F - 37.4 °F 100% 29.99 in 1.0 mi South 2.3 mph - N/A   Clear
7:53 PM 33.8 °F - 33.8 °F 100% 30.00 in 2.0 mi South 1.2 mph - N/A   Clear
7:58 PM 33.6 °F - 33.4 °F 99% 30.02 in 2.5 mi South 2.3 mph - N/A   Clear
8:03 PM 32.0 °F - 32.0 °F 100% 30.00 in 1.5 mi SSE 2.3 mph - N/A   Clear
8:08 PM 33.8 °F - 33.8 °F 100% 30.00 in 1.8 mi ESE 1.2 mph - N/A   Clear
8:13 PM 35.6 °F - 35.6 °F 100% 30.00 in 6.0 mi Calm Calm - N/A   Clear
8:23 PM 35.6 °F - 33.8 °F 93% 30.00 in 2.5 mi Calm Calm - N/A   Clear
8:28 PM 33.8 °F - 32.0 °F 93% 30.00 in 1.2 mi SSE 2.3 mph - N/A   Clear
8:33 PM 32.0 °F - 32.0 °F 100% 30.00 in 1.0 mi Calm Calm - N/A   Clear
8:38 PM 32.0 °F - 32.0 °F 100% 30.00 in 0.8 mi Calm Calm - N/A   Clear
8:43 PM 33.8 °F - 32.0 °F 93% 30.00 in 0.8 mi SSE 1.2 mph - N/A   Clear
8:48 PM 32.0 °F - 32.0 °F 100% 30.00 in 1.2 mi SSE 2.3 mph - N/A   Clear
8:53 PM 32.0 °F - 32.0 °F 100% 30.00 in 2.0 mi SSE 1.2 mph - N/A   Clear
8:58 PM 32.2 °F - 32.0 °F 99% 30.02 in 3.0 mi Calm Calm - N/A   Clear
9:03 PM 32.0 °F - 32.0 °F 100% 30.00 in 2.5 mi South 2.3 mph - N/A   Clear
9:08 PM 32.0 °F - 32.0 °F 100% 30.00 in 2.0 mi South 2.3 mph - N/A   Clear
9:13 PM 32.0 °F 28.7 °F 32.0 °F 100% 30.00 in 1.5 mi South 3.5 mph - N/A   Clear
9:18 PM 32.0 °F - 32.0 °F 100% 30.00 in 0.8 mi South 2.3 mph - N/A   Clear
9:23 PM 32.0 °F - 32.0 °F 100% 30.01 in 1.0 mi South 2.3 mph - N/A   Clear
9:28 PM 32.0 °F 28.7 °F 32.0 °F 100% 30.01 in 2.0 mi South 3.5 mph - N/A   Clear
9:33 PM 32.0 °F - 32.0 °F 100% 30.01 in 1.8 mi South 1.2 mph - N/A   Clear
9:38 PM 32.0 °F - 32.0 °F 100% 30.01 in 1.0 mi South 2.3 mph - N/A   Clear
9:43 PM 32.0 °F - 32.0 °F 100% 30.01 in 1.2 mi South 2.3 mph - N/A   Clear
9:48 PM 32.0 °F - 32.0 °F 100% 30.01 in 2.0 mi SSW 2.3 mph - N/A   Clear
9:53 PM 32.0 °F - 32.0 °F 100% 30.01 in 4.0 mi SSW 2.3 mph - N/A   Clear
9:58 PM 31.5 °F - 31.1 °F 99% 30.03 in 2.5 mi South 2.3 mph - N/A   Clear
10:03 PM 32.0 °F - 32.0 °F 100% 30.01 in 1.5 mi South 2.3 mph - N/A   Clear
10:08 PM 32.0 °F - 32.0 °F 100% 30.01 in 1.0 mi South 2.3 mph - N/A   Clear
10:13 PM 32.0 °F - 32.0 °F 100% 30.02 in 0.8 mi South 2.3 mph - N/A   Clear
10:18 PM 32.0 °F - 32.0 °F 100% 30.01 in 0.8 mi SSE 1.2 mph - N/A   Clear
10:23 PM 32.0 °F - 32.0 °F 100% 30.01 in 1.5 mi Calm Calm - N/A   Clear
10:28 PM 32.0 °F - 32.0 °F 100% 30.02 in 2.0 mi Calm Calm - N/A   Clear
10:33 PM 32.0 °F 28.7 °F 32.0 °F 100% 30.02 in 0.8 mi South 3.5 mph - N/A   Clear
10:38 PM 32.0 °F - 32.0 °F 100% 30.02 in 0.5 mi SSE 2.3 mph - N/A Fog Light Freezing Fog
10:43 PM 32.0 °F - 32.0 °F 100% 30.02 in 1.0 mi SSE 2.3 mph - N/A   Clear
10:48 PM 32.0 °F - 32.0 °F 100% 30.02 in 1.8 mi SSE 2.3 mph - N/A   Clear
10:53 PM 32.0 °F - 32.0 °F 100% 30.02 in 2.5 mi SSW 2.3 mph - N/A   Clear
10:58 PM 31.5 °F - 31.3 °F 99% 30.05 in 5.0 mi South 2.3 mph - N/A   Clear
11:13 PM 32.0 °F - 32.0 °F 100% 30.02 in 1.5 mi SSE 2.3 mph - N/A   Clear
11:18 PM 32.0 °F - 32.0 °F 100% 30.02 in 1.2 mi Calm Calm - N/A   Clear
11:23 PM 32.0 °F - 32.0 °F 100% 30.02 in 2.0 mi Calm Calm - N/A   Clear
11:28 PM 32.0 °F - 32.0 °F 100% 30.03 in 5.0 mi Calm Calm - N/A   Clear
11:43 PM 30.2 °F - 30.2 °F 100% 30.03 in 2.5 mi Calm Calm - N/A   Partly Cloudy
11:48 PM 32.0 °F - 32.0 °F 100% 30.03 in 3.0 mi Calm Calm - N/A   Partly Cloudy
11:53 PM 32.0 °F - 32.0 °F 100% 30.03 in 2.5 mi Calm Calm - N/A   Partly Cloudy
11:58 PM 30.7 °F - 30.6 °F 99% 30.05 in 2.0 mi South 2.3 mph - N/A   Clear